Regional Weather Roundup
Issued by NWS Charleston, SC

Current Version | Previous Version | Graphics & Text | Print | Product List | Glossary On
Versions: 1 2 3 4 5 6 7 8 9 10 11 12 13 14 15 16 17 18 19 20 21 22 23 24 25 26 27 28 29 30 31 32 33 34 35 36 37 38 39 40 41 42 43 44 45 46 47 48 49 50
000
ASUS42 KCHS 230910
RWRCHS

REGIONAL WEATHER ROUNDUP
NATIONAL WEATHER SERVICE CHARLESTON SC
500 AM EDT WED APR 23 2014

NOTE: "FAIR" INDICATES FEW OR NO CLOUDS BELOW 12,000 FEET WITH NO
SIGNIFICANT WEATHER AND/OR OBSTRUCTIONS TO VISIBILITY.

NOT ALL STATIONS ARE QUALITY CONTROLLED BY THE NATIONAL
WEATHER SERVICE. USE DATA WITH CAUTION...ESPECIALLY
DEWPOINT OBSERVATIONS.

SCZ027-030-031-034>040-042>050-231000-
...SOUTH CAROLINA...

CITY           SKY/WX    TMP DP  RH WIND       PRES   REMARKS
N CHARLESTON   MOCLDY    63  60  90 W7        29.78S FOG
WATERFRONT PRK   N/A     64 N/A N/A W7          N/A
FORT JOHNSON   NOT AVBL
MOUNT PLEASANT LGT RAIN  63  63 100 W6        29.77S
JOHNS ISLAND   SUNNY     64  63  94 W8        29.78S
PINOPOLIS        N/A     64  61  88 W8        29.69R
MONCKS CORNER  FAIR      63  63 100 CALM      29.77S FOG
SUMMERVILLE    NOT AVBL
BEAUFORT MCAS  CLEAR     63  60  90 NW8       29.80R
BEAUFORT ARPT  FAIR      63  63 100 W8        29.80R
HILTON HEAD IS NOT AVBL
GEORGETOWN     NOT AVBL
WALTERBORO     SUNNY     61 N/A N/A W5        29.80R HAZE
ORANGEBURG     CLEAR     60  58  92 W6        29.78R FOG
BARNWELL       FAIR      59  57  94 W3        29.80R FOG
AIKEN          FAIR      59  59 100 CALM      29.82R FOG
MANNING        FAIR      61 N/A N/A CALM      29.76S
KINGSTREE      NOT AVBL
COLUMBIA       PTCLDY    55  54  96 CALM      29.77R FOG
SUMTER         CLEAR     60  59  97 W8        29.75R
FLORENCE       CLEAR     61  59  93 W7        29.74R FOG
MYRTLE BEACH   CLEAR     63  57  82 W9        29.74R
N MYRTLE BEACH CLEAR     62  59  90 W6        29.73R

$$

GAZ063-065-086>088-099>101-113>116-118-119-134-136>141-150-231000-
...GEORGIA...

CITY           SKY/WX    TMP DP  RH WIND       PRES   REMARKS
SAVANNAH ARPT  PTCLDY    62  59  90 W8        29.82R FOG
HUNTER AAF     CLEAR     60  60 100 W5        29.80S
FORT STEWART   CLEAR     61  61 100 SW6       29.82R
STATESBORO     NOT AVBL
SYLVANIA       SUNNY     63  60  91 CALM      29.82R FOG
CLAXTON        FAIR     N/A N/A N/A W3        29.83S FOG
THOMSON        CLEAR     58  58 100 W3        29.86R
AUGUSTA-BUSH   FOG       52  51  97 S3        29.80S VSB 1/4
AUGUSTA-DANIEL CLEAR     62  59  90 W3        29.80S
SWAINSBORO     FAIR      59  59 100 W3        29.84R FOG
VIDALIA        CLEAR     61  59  94 CALM      29.83F FOG
ALMA           CLEAR     61  58  90 W3        29.85R FOG
WAYCROSS       NOT AVBL
JESUP          FAIR      59  59 100 CALM      29.85R FOG
BRUNSWICK      CLEAR     63  61  94 W3        29.85S
SAINT SIMONS   LGT RAIN  64  61  90 W7        29.84S

$$

SCZ027-028-034-036>038-045-046-048>050-GAZ119-141-231000-
...LAKE AND SUPPLEMENTAL COASTAL OBSERVATIONS...

STATION/POSITION TIME  TEMP    WIND        PRES    WAVE   SWELL
                       AIR SEA DIR/SP/G            HT/PER HT/PER/DIR
                 (UTC) (F)     (DEG/KT/KT) (MB)    (FT/S) (FT/S/D)
UPR LAKE MARION  NOT AVBL
WINYAH BAY       0800   64     270/  7     1007.0S
LAKE MURRAY      0800   61     280/  3/  8 1007.8R
ACE BASIN NERRS  0800   63     270/  3     1008.0S
FORT PULASKI     NOT AVBL
SAPELO ISLAND    0800   64     250/  6     1010.0S

$$

ANZ835-935-AMZ111-154-330-350-352-354-374-450-454-472-231000-
...C-MAN AND BUOY OBSERVATIONS...

STATION/POSITION TIME  TEMP    WIND        PRES    WAVE   SWELL
                       AIR SEA DIR/SP/G            HT/PER HT/PER/DIR
                 (UTC) (F)     (DEG/KT/KT) (MB)    (FT/S) (FT/S/D)
FOLLY BEACH CMAN 0800   64     260/  6/  9 1008.6R
BUOY 41004       0900   67 69  260/ 14/ 17 1007.5R   3/ 9   2/ 9
BUOY 41008       0900   65 64  270/ 12/ 14 1009.7R   2/ 8   2/100/ 8
5E ST. MARYS GA  0900      66                N/A     2/ 9   2/100/11
FRYING PAN BUOY  0900   66 67  270/ 17/ 19 1005.8F   4/ 9   2/100/ 9
BUOY 41025       0900   69 76  260/ 17/ 19 1002.9S
CAPE LOOKOUT NC  0800   63     250/ 11/ 14 1004.4F
BUOY 41002       NOT AVBL
BUOY 41010       0900   74 75  240/ 12/ 16 1010.6S   4/ 9   3/ 50/ 9
BUOY 41012       NOT AVBL
ST AUGUSTINE FL  0900   63     270/ 10/ 13 1011.9F
CAPERS NEARSHORE NOT AVBL
FRIPP NEARSHORE  0800   65     280/ 10/ 10   N/A


$$



USA.gov is the U.S. government's official web portal to all federal, state and local government web resources and services.